STARLINK-1873 (47158 NORAD) Tracking and Keplerian Element Data

This shows tracking and keplerian element data for the satellite.

Feedback or suggestion? Click here.




ElementValue
Catalog47158
NameSTARLINK-1873
Epoch Orbit969
Epoch Day21.16668981
Epoch Year2021
RAAN72.8995
Inclination53.0554
Eccentricity0.0001246
Argument of Perigee39.0644
Mean Anonmoly27.879
Mean Motion15.62788254
Decay Rate-0.00033174
L11 47158U 20088AN 21021.16668981 -.00033174 00000-0 -35746-3 0 9992
L22 47158 53.0554 72.8995 0001246 39.0644 27.8790 15.62788254 9693

Live tracking and technical data element details for STARLINK-1873 (NORAD 47158). STARLINK-1873 can be tracked NOW for your location showing map with azimuth and elevation plus other details from your city location.

Track the satellite on the map from your city or location and see movement details for azimuth, elevation, latitude, longitude, range, height, and movement on the map or in text.







IsCatalogInMostPopularTable: catalog: 47158, numindb: 26
Update: records affected: 1



GetName: 47158 STARLINK-1873

Hit Count: updated at: Sat, 23 Jan 2021 18:06:52 GMT